MSR799 HECA-LFPG

Flight info

Callsign MSR799
Flight time N/A
Altitude 38000
Route CVO L617 NABSI M872 METRU UM872 LATAN DCT PES DCT LOMED DCT AOSTA DCT ORSUD DCT MOLUS DCT UNKIR DCT GIVRI/N0473F360 DCT TINIL
Aircraft B77W/H-SDE1E2E3FGHIJ2J3J4J5M1RWXY/LB1D1

Departure

Time N/A
Airport Cairo International Airport (HECA)

Arrival

Time 2026-05-07 13:36
Airport Charles de Gaulle International Airport (LFPG)
Time Latitude Longitude Altitude Speed Heading
2026-05-07 12:31 45.19100 8.65007 37988 ft 475 kts 301°
2026-05-07 12:31 45.20943 8.61125 37991 ft 475 kts 301°
2026-05-07 12:32 45.24441 8.53733 37990 ft 475 kts 301°
2026-05-07 12:32 45.28093 8.45998 37990 ft 475 kts 301°
2026-05-07 12:33 45.33216 8.35116 37988 ft 475 kts 301°
2026-05-07 12:33 45.36830 8.27409 37985 ft 476 kts 301°
2026-05-07 12:34 45.39827 8.21002 37991 ft 475 kts 301°
2026-05-07 12:34 45.43234 8.13703 37990 ft 476 kts 301°
2026-05-07 12:35 45.45595 8.08631 37977 ft 476 kts 301°
2026-05-07 12:35 45.47706 8.04084 37964 ft 476 kts 301°
2026-05-07 12:36 45.49729 7.99716 38037 ft 475 kts 301°
2026-05-07 12:36 45.52341 7.94076 38009 ft 476 kts 301°
2026-05-07 12:37 45.54137 7.90189 37945 ft 478 kts 301°
2026-05-07 12:37 45.55140 7.88029 37838 ft 476 kts 302°
2026-05-07 12:37 45.56463 7.85473 37826 ft 472 kts 303°
2026-05-07 12:38 45.59271 7.79547 37950 ft 471 kts 300°
2026-05-07 12:38 45.61596 7.74262 37946 ft 474 kts 299°
2026-05-07 12:39 45.63325 7.70379 37951 ft 475 kts 300°
2026-05-07 12:39 45.65462 7.65796 37986 ft 475 kts 300°
2026-05-07 12:40 45.66954 7.62484 37674 ft 483 kts 300°
2026-05-07 12:40 45.68567 7.58893 37819 ft 479 kts 300°
2026-05-07 12:41 45.70556 7.54498 37917 ft 478 kts 300°
2026-05-07 12:41 45.73142 7.48806 37964 ft 479 kts 300°
2026-05-07 12:42 45.76255 7.41972 37960 ft 481 kts 300°
2026-05-07 12:42 45.80438 7.34516 37960 ft 487 kts 312°
2026-05-07 12:43 45.85644 7.28275 37959 ft 490 kts 322°
2026-05-07 12:43 45.91273 7.22766 37948 ft 490 kts 322°
2026-05-07 12:44 45.96849 7.17155 37929 ft 489 kts 322°
2026-05-07 12:44 46.02390 7.11467 37907 ft 489 kts 322°
2026-05-07 12:45 46.07922 7.05766 37894 ft 489 kts 322°
2026-05-07 12:45 46.13452 7.00062 37891 ft 489 kts 322°
2026-05-07 12:46 46.18986 6.94347 37877 ft 489 kts 322°
2026-05-07 12:46 46.24523 6.88614 37890 ft 489 kts 322°
2026-05-07 12:47 46.30056 6.82866 37882 ft 490 kts 322°
2026-05-07 12:47 46.35595 6.77101 37870 ft 490 kts 322°
2026-05-07 12:48 46.41098 6.71261 37882 ft 489 kts 317°
2026-05-07 12:48 46.45743 6.64168 37896 ft 484 kts 304°
2026-05-07 12:49 46.49286 6.55919 37896 ft 481 kts 297°
2026-05-07 12:49 46.52555 6.47437 37896 ft 482 kts 297°
2026-05-07 12:50 46.55819 6.39025 37887 ft 483 kts 297°
2026-05-07 12:50 46.59145 6.30540 37893 ft 483 kts 297°
2026-05-07 12:51 46.62479 6.22041 37890 ft 484 kts 297°
2026-05-07 12:51 46.65803 6.13531 37884 ft 484 kts 297°
2026-05-07 12:52 46.69119 6.05012 37888 ft 484 kts 297°
2026-05-07 12:52 46.72432 5.96477 37887 ft 484 kts 297°
2026-05-07 12:53 46.75201 5.89316 37885 ft 484 kts 297°
2026-05-07 12:53 46.78487 5.80802 37888 ft 485 kts 297°
2026-05-07 12:54 46.82558 5.72944 37889 ft 491 kts 314°
2026-05-07 12:54 46.88129 5.67147 37884 ft 496 kts 329°
2026-05-07 12:55 46.94234 5.62398 37858 ft 497 kts 330°
2026-05-07 12:55 47.00204 5.57728 37863 ft 497 kts 329°
2026-05-07 12:56 47.06065 5.53022 37866 ft 498 kts 329°
2026-05-07 12:56 47.12111 5.48116 37864 ft 498 kts 329°
2026-05-07 12:57 47.17883 5.43424 37859 ft 497 kts 329°
2026-05-07 12:57 47.23544 5.38818 37863 ft 497 kts 329°
2026-05-07 12:58 47.29273 5.34144 37858 ft 495 kts 329°
2026-05-07 12:58 47.32023 5.31899 37730 ft 489 kts 329°
2026-05-07 12:58 47.34929 5.29533 36969 ft 491 kts 329°
2026-05-07 12:59 47.37922 5.27097 36263 ft 489 kts 329°
2026-05-07 12:59 47.40870 5.24692 35479 ft 489 kts 329°
2026-05-07 12:59 47.43849 5.22258 34581 ft 491 kts 329°
2026-05-07 12:59 47.46850 5.19802 33640 ft 494 kts 329°
2026-05-07 13:00 47.49614 5.17535 32906 ft 493 kts 329°
2026-05-07 13:00 47.52143 5.15460 32341 ft 490 kts 329°
2026-05-07 13:00 47.54420 5.13589 31858 ft 487 kts 330°
2026-05-07 13:00 47.57186 5.11316 31263 ft 483 kts 330°
2026-05-07 13:01 47.59912 5.08934 30661 ft 477 kts 324°
2026-05-07 13:01 47.62490 5.05969 30059 ft 473 kts 318°
2026-05-07 13:01 47.64788 5.02908 29469 ft 468 kts 316°
2026-05-07 13:01 47.67152 4.99676 28853 ft 465 kts 316°
2026-05-07 13:02 47.69347 4.96767 28289 ft 462 kts 317°
2026-05-07 13:02 47.71532 4.93981 27981 ft 452 kts 319°
2026-05-07 13:02 47.73865 4.91049 27797 ft 439 kts 319°
2026-05-07 13:02 47.76029 4.88327 27366 ft 434 kts 319°
2026-05-07 13:03 47.78040 4.85786 26987 ft 429 kts 318°
2026-05-07 13:03 47.80150 4.83110 26575 ft 424 kts 318°
2026-05-07 13:03 47.82025 4.80729 26215 ft 420 kts 318°
2026-05-07 13:03 47.83832 4.78432 25867 ft 416 kts 318°
2026-05-07 13:04 47.85644 4.76125 25513 ft 413 kts 318°
2026-05-07 13:04 47.87380 4.73913 25181 ft 409 kts 318°
2026-05-07 13:04 47.89266 4.71508 24820 ft 405 kts 318°
2026-05-07 13:04 47.91156 4.69097 24462 ft 402 kts 318°
2026-05-07 13:05 47.92784 4.67018 24149 ft 400 kts 318°
2026-05-07 13:05 47.94579 4.64724 23816 ft 401 kts 318°
2026-05-07 13:05 47.96268 4.62562 23489 ft 402 kts 318°
2026-05-07 13:05 47.98375 4.59862 23087 ft 402 kts 318°
2026-05-07 13:06 48.00489 4.57152 22680 ft 401 kts 318°
2026-05-07 13:06 48.02204 4.54951 22349 ft 399 kts 319°
2026-05-07 13:06 48.04039 4.52594 21997 ft 398 kts 318°
2026-05-07 13:06 48.05632 4.50547 21683 ft 397 kts 318°
2026-05-07 13:07 48.06917 4.48892 21433 ft 395 kts 318°
2026-05-07 13:07 48.08395 4.46988 21146 ft 395 kts 318°
2026-05-07 13:07 48.09539 4.45512 20914 ft 394 kts 319°
2026-05-07 13:07 48.11105 4.43491 20595 ft 392 kts 318°
2026-05-07 13:08 48.12448 4.41758 20348 ft 389 kts 318°
2026-05-07 13:08 48.13693 4.40151 20114 ft 387 kts 318°
2026-05-07 13:08 48.14906 4.38581 19890 ft 384 kts 318°
2026-05-07 13:08 48.16212 4.36889 19642 ft 382 kts 318°
2026-05-07 13:09 48.17388 4.35368 19395 ft 380 kts 318°
2026-05-07 13:09 48.18927 4.33376 19108 ft 377 kts 318°
2026-05-07 13:09 48.20900 4.30822 18738 ft 373 kts 318°
2026-05-07 13:09 48.22830 4.28319 18373 ft 370 kts 318°
2026-05-07 13:10 48.24646 4.25964 18027 ft 367 kts 318°
2026-05-07 13:10 48.25988 4.24215 17770 ft 365 kts 317°
2026-05-07 13:10 48.26978 4.22790 17569 ft 363 kts 311°
2026-05-07 13:10 48.27859 4.21172 17336 ft 359 kts 305°
2026-05-07 13:11 48.28579 4.19689 17191 ft 356 kts 306°
2026-05-07 13:11 48.29362 4.18202 17056 ft 354 kts 308°
2026-05-07 13:11 48.30109 4.16799 16928 ft 350 kts 307°
2026-05-07 13:11 48.31219 4.14741 16692 ft 345 kts 308°
2026-05-07 13:12 48.32348 4.12701 16343 ft 335 kts 308°
2026-05-07 13:12 48.33184 4.11193 16137 ft 327 kts 308°
2026-05-07 13:12 48.34034 4.09654 15940 ft 318 kts 308°
2026-05-07 13:12 48.35126 4.07673 15714 ft 319 kts 308°
2026-05-07 13:13 48.35955 4.06161 15545 ft 320 kts 308°
2026-05-07 13:13 48.36688 4.04822 15390 ft 320 kts 308°
2026-05-07 13:13 48.37414 4.03492 15224 ft 321 kts 308°
2026-05-07 13:13 48.38090 4.02250 15049 ft 323 kts 308°
2026-05-07 13:14 48.38800 4.00950 14859 ft 324 kts 308°
2026-05-07 13:14 48.39557 3.99565 14727 ft 323 kts 308°
2026-05-07 13:14 48.40303 3.98196 14601 ft 321 kts 308°
2026-05-07 13:14 48.40991 3.96934 14475 ft 320 kts 308°
2026-05-07 13:15 48.41676 3.95676 14326 ft 319 kts 308°
2026-05-07 13:15 48.42354 3.94439 14180 ft 317 kts 308°
2026-05-07 13:15 48.43181 3.92957 14002 ft 314 kts 309°
2026-05-07 13:15 48.44371 3.90837 13776 ft 311 kts 308°
2026-05-07 13:16 48.45733 3.88308 13495 ft 310 kts 307°
2026-05-07 13:16 48.47083 3.85781 13226 ft 309 kts 307°
2026-05-07 13:16 48.48432 3.83277 12929 ft 308 kts 307°
2026-05-07 13:16 48.49784 3.80781 12647 ft 306 kts 308°
2026-05-07 13:17 48.51126 3.78306 12362 ft 304 kts 308°
2026-05-07 13:17 48.52443 3.75874 12103 ft 303 kts 307°
2026-05-07 13:17 48.53761 3.73433 11823 ft 301 kts 307°
2026-05-07 13:17 48.54931 3.71007 11655 ft 295 kts 301°
2026-05-07 13:18 48.56010 3.68435 11503 ft 291 kts 300°
2026-05-07 13:18 48.56948 3.66174 11381 ft 295 kts 301°
2026-05-07 13:18 48.58025 3.63618 11235 ft 298 kts 301°
2026-05-07 13:18 48.59148 3.60983 11079 ft 299 kts 301°
2026-05-07 13:19 48.60152 3.58637 10921 ft 298 kts 301°
2026-05-07 13:19 48.61246 3.56382 10762 ft 294 kts 314°
2026-05-07 13:19 48.62853 3.54699 10601 ft 293 kts 330°
2026-05-07 13:19 48.64663 3.53199 10433 ft 299 kts 330°
2026-05-07 13:20 48.66464 3.51676 10232 ft 301 kts 329°
2026-05-07 13:20 48.68029 3.50336 10074 ft 300 kts 329°
2026-05-07 13:20 48.69474 3.49091 9898 ft 296 kts 329°
2026-05-07 13:20 48.70952 3.47811 9732 ft 291 kts 329°
2026-05-07 13:21 48.72171 3.46748 9586 ft 287 kts 329°
2026-05-07 13:21 48.73661 3.45452 9433 ft 282 kts 329°
2026-05-07 13:21 48.74518 3.44705 9341 ft 281 kts 329°
2026-05-07 13:21 48.75423 3.43916 9229 ft 280 kts 329°
2026-05-07 13:22 48.76478 3.42997 9127 ft 279 kts 329°
2026-05-07 13:22 48.77335 3.42249 9027 ft 279 kts 329°
2026-05-07 13:22 48.78247 3.41452 8877 ft 279 kts 329°
2026-05-07 13:22 48.79281 3.40548 8772 ft 278 kts 329°
2026-05-07 13:23 48.80318 3.39642 8727 ft 274 kts 329°
2026-05-07 13:23 48.81962 3.38209 8557 ft 272 kts 329°
2026-05-07 13:23 48.83608 3.36766 8380 ft 275 kts 329°
2026-05-07 13:23 48.85263 3.35313 8205 ft 278 kts 329°
2026-05-07 13:24 48.86602 3.34139 8062 ft 278 kts 329°
2026-05-07 13:24 48.87384 3.33455 7984 ft 277 kts 329°
2026-05-07 13:24 48.88271 3.32678 7892 ft 276 kts 329°
2026-05-07 13:24 48.89100 3.31951 7796 ft 277 kts 329°
2026-05-07 13:25 48.89913 3.31237 7701 ft 277 kts 329°
2026-05-07 13:25 48.90635 3.30602 7612 ft 277 kts 329°
2026-05-07 13:25 48.91432 3.29899 7524 ft 276 kts 329°
2026-05-07 13:25 48.92256 3.29174 7475 ft 274 kts 329°
2026-05-07 13:26 48.93569 3.28023 7338 ft 273 kts 329°
2026-05-07 13:26 48.95030 3.26490 7119 ft 267 kts 312°
2026-05-07 13:26 48.95960 3.24266 6978 ft 262 kts 295°
2026-05-07 13:26 48.96800 3.21738 6827 ft 271 kts 297°
2026-05-07 13:27 48.97642 3.19292 6659 ft 272 kts 297°
2026-05-07 13:27 48.98520 3.16762 6458 ft 270 kts 297°
2026-05-07 13:27 48.99226 3.14726 6319 ft 268 kts 297°
2026-05-07 13:27 48.99778 3.13131 6196 ft 264 kts 297°
2026-05-07 13:28 49.00294 3.11636 6081 ft 260 kts 297°
2026-05-07 13:28 49.00853 3.10019 5949 ft 249 kts 297°
2026-05-07 13:28 49.01329 3.08645 5850 ft 240 kts 297°
2026-05-07 13:28 49.01871 3.07081 5758 ft 233 kts 297°
2026-05-07 13:29 49.02260 3.05954 5659 ft 230 kts 297°
2026-05-07 13:29 49.02838 3.04279 5531 ft 224 kts 297°
2026-05-07 13:29 49.03484 3.02411 5389 ft 220 kts 297°
2026-05-07 13:29 49.04190 3.00366 5265 ft 217 kts 297°
2026-05-07 13:30 49.04660 2.98229 5111 ft 214 kts 274°
2026-05-07 13:30 49.04699 2.95988 5037 ft 214 kts 269°
2026-05-07 13:30 49.04652 2.93831 4920 ft 217 kts 266°
2026-05-07 13:30 49.04555 2.91549 4852 ft 218 kts 265°
2026-05-07 13:31 49.04445 2.89424 4607 ft 222 kts 265°
2026-05-07 13:31 49.04332 2.87318 4350 ft 223 kts 265°
2026-05-07 13:31 49.04212 2.85091 4081 ft 221 kts 265°
2026-05-07 13:31 49.04096 2.82866 3819 ft 218 kts 265°
2026-05-07 13:32 49.03993 2.80924 3560 ft 213 kts 265°
2026-05-07 13:32 49.03878 2.78794 3288 ft 206 kts 265°
2026-05-07 13:32 49.03765 2.76682 3007 ft 192 kts 265°
2026-05-07 13:32 49.03664 2.74775 2763 ft 177 kts 265°
2026-05-07 13:33 49.03567 2.72968 2545 ft 169 kts 265°
2026-05-07 13:33 49.03470 2.71178 2348 ft 170 kts 266°
2026-05-07 13:33 49.03377 2.69443 2100 ft 158 kts 266°
2026-05-07 13:33 49.03292 2.67859 1920 ft 147 kts 267°
2026-05-07 13:34 49.03210 2.66297 1729 ft 149 kts 268°
2026-05-07 13:34 49.03046 2.63213 1343 ft 145 kts 268°
2026-05-07 13:34 49.02966 2.61719 1154 ft 145 kts 267°
2026-05-07 13:35 49.02883 2.60162 954 ft 145 kts 267°
2026-05-07 13:35 49.02800 2.58638 757 ft 144 kts 266°
2026-05-07 13:35 49.02719 2.57115 551 ft 144 kts 267°
2026-05-07 13:35 49.02639 2.55598 371 ft 141 kts 266°
2026-05-07 13:36 49.02571 2.54306 361 ft 94 kts 265°
2026-05-07 13:36 49.02539 2.53707 362 ft 59 kts 264°
2026-05-07 13:36 49.02440 2.53307 363 ft 26 kts 230°
2026-05-07 13:36 49.02359 2.53139 366 ft 14 kts 235°
2026-05-07 13:37 49.02290 2.53036 366 ft 14 kts 207°
2026-05-07 13:37 49.02195 2.53004 363 ft 14 kts 176°
2026-05-07 13:37 49.02099 2.53015 362 ft 16 kts 176°
2026-05-07 13:37 49.01991 2.53029 363 ft 16 kts 174°
2026-05-07 13:38 49.01882 2.53057 363 ft 16 kts 149°
2026-05-07 13:38 49.01849 2.53213 360 ft 16 kts 89°
2026-05-07 13:38 49.01856 2.53384 363 ft 16 kts 84°
2026-05-07 13:38 49.01868 2.53553 365 ft 16 kts 84°
2026-05-07 13:39 49.01879 2.53724 361 ft 16 kts 85°
2026-05-07 13:39 49.01888 2.53896 367 ft 16 kts 85°
2026-05-07 13:39 49.01893 2.54067 363 ft 14 kts 99°
2026-05-07 13:39 49.01863 2.54121 362 ft 5 kts 152°
2026-05-07 13:40 49.01829 2.54106 359 ft 6 kts 217°
2026-05-07 13:40 49.01799 2.54055 361 ft 7 kts 225°
2026-05-07 13:40 49.01759 2.54002 367 ft 8 kts 211°
2026-05-07 13:40 49.01704 2.54020 365 ft 9 kts 147°
2026-05-07 13:41 49.01681 2.54044 359 ft 1 kts 146°
2026-05-07 13:41 49.01680 2.54046 368 ft 0 kts 146°